User: anonymous   Login
Location: Middle Street
(51.7167°N, 0.0333°E)
Time: 16:03:06
(UTC+00:00)
Language:

SJ 16-02 - Orbit

View from above orbital plane
View from above orbital plane
View from above satellite
View from above satellite

Ground track
Ground track

The orbit data is extracted from the following two-line orbital elements,

1 41634U 16043A   21108.17974821  .00000229  00000-0  29436-4 0  9994
2 41634  75.0032 222.9028 0008437 280.2670  79.7584 14.85788418260494
Epoch (UTC): 18 April 2021 04:18:50
Eccentricity: 0.0008437
inclination: 75.0032°
perigee height: 605 km
apogee height: 617 km
right ascension of ascending node: 222.9028°
argument of perigee: 280.2670°
revolutions per day: 14.85788418
mean anomaly at epoch: 79.7584°
orbit number at epoch: 26049

The dashed part of the orbit path shows where the satellite is in the earth's shadow,  

DLR